This is the latest recevied weather packets stored in our database for station/object W7BTL. If no packets are shown the sender has not sent any weather packets the latest 10 day(s).
| Time | Temp. | Humidity | Pressure | Rain* | Wind** | Luminosity | Snow |
|---|---|---|---|---|---|---|---|
| 1788061657 | 25° C | 67% | 1010 hPa | 0 mm | - | 0 W/m² | - |
| 1788061356 | 25° C | 66% | 1010 hPa | 0 mm | - | 0 W/m² | - |
| 1788061053 | 25° C | 65% | 1009.9 hPa | 0 mm | - | 0 W/m² | - |
| 1788060751 | 25° C | 63% | 1010.1 hPa | 0 mm | - | 0 W/m² | - |
| 1788060447 | 25.56° C | 63% | 1009.9 hPa | 0 mm | - | 0 W/m² | - |
| 1788060142 | 25.56° C | 62% | 1009.8 hPa | 0 mm | - | 0 W/m² | - |
| 1788059837 | 25.56° C | 61% | 1009.7 hPa | 0 mm | - | 0 W/m² | - |
| 1788059532 | 25.56° C | 60% | 1009.5 hPa | 0 mm | - | 0 W/m² | - |
| 1788059228 | 25.56° C | 58% | 1009.7 hPa | 0 mm | - | 0 W/m² | - |
| 1788058924 | 26.11° C | 57% | 1009.5 hPa | 0 mm | - | 0 W/m² | - |
| 1788058622 | 26.11° C | 56% | 1009.5 hPa | 0 mm | - | 0 W/m² | - |
| 1788058316 | 26.11° C | 56% | 1009.4 hPa | 0 mm | - | 0 W/m² | - |
| 1788058011 | 26.11° C | 57% | 1009.3 hPa | 0 mm | - | 0 W/m² | - |
| 1788057710 | 26.11° C | 58% | 1009.4 hPa | 0 mm | - | 0 W/m² | - |
| 1788057408 | 26.67° C | 57% | 1009.5 hPa | 0 mm | - | 0 W/m² | - |
| 1788057103 | 26.67° C | 57% | 1009.4 hPa | 0 mm | - | 1 W/m² | - |
| 1788056803 | 26.67° C | 57% | 1009.5 hPa | 0 mm | - | 2 W/m² | - |
| 1788056499 | 26.67° C | 57% | 1009.6 hPa | 0 mm | - | 4 W/m² | - |
| 1788056198 | 26.67° C | 56% | 1009.5 hPa | 0 mm | - | 7 W/m² | - |
| 1788055893 | 26.67° C | 57% | 1009.3 hPa | 0 mm | - | 9 W/m² | - |
| 1788055592 | 26.67° C | 57% | 1009.5 hPa | 0 mm | - | 14 W/m² | - |
| 1788055288 | 26.67° C | 57% | 1009.4 hPa | 0 mm | - | 19 W/m² | - |
| 1788054987 | 26.67° C | 59% | 1009.3 hPa | 0 mm | - | 23 W/m² | - |
| 1788054683 | 26.67° C | 61% | 1009.3 hPa | 0 mm | - | 27 W/m² | - |
| 1788054378 | 27.22° C | 63% | 1009.3 hPa | 0 mm | - | 31 W/m² | - |
* Rain latest hour (hover to see other rain measurements)
** Current wind speed in m/s (hover to see current wind gust speed)